Date String (YYYY-MM-DD hh:mm:ss) UTC,Instrument flags,Ambient pressure (hPa),Sample flow (lpm),Bypass flow (lpm),Sample temperature (°C),Ambient temperature (°C),ASC tube jacket temperature (°C),LED temperature (°C),Box temperature (°C),Sample RH (%),Span deviation,Mass concentration (μg/m³),Mass concentration (μg/m³),Mass concentration (μg/m³)
DateTimeUTC,F1_M11,P_M11,Q1_M11,Q2_M11,T1_M11,T2_M11,T3_M11,T4_M11,T5_M11,U1_M11,ZSPAN_M11,X0_M11,X2_M11,X1_M11
2022-04-04 10:00:00,,0821.4,5.00,0.00,23.1,22.3,00.0,32.2,24.9,13.7,0000.0,0016.42,0006.09,0004.20
2022-04-04 10:01:00,,0821.4,5.01,0.00,23.1,22.2,00.0,32.2,24.9,13.7,0000.0,0016.54,0006.19,0004.23
2022-04-04 10:02:00,,0821.4,4.99,0.00,23.1,22.3,00.0,32.2,24.9,13.8,0000.0,0016.83,0006.34,0004.29
2022-04-04 10:03:00,,0821.4,5.00,0.00,23.1,22.3,00.0,32.2,24.9,13.9,0000.0,0017.50,0006.46,0004.35
2022-04-04 10:04:00,,0821.4,5.00,0.00,23.1,22.3,00.0,32.2,24.9,14.0,0000.0,0017.06,0006.42,0004.40
2022-04-04 10:05:00,,0821.3,5.00,0.00,23.1,22.3,00.0,32.2,24.9,14.0,0000.0,0015.51,0006.42,0004.44
2022-04-04 10:06:00,,0821.3,4.98,0.00,23.1,22.3,00.0,32.2,24.9,14.0,0000.0,0015.49,0006.44,0004.48
2022-04-04 10:07:00,,0821.3,5.00,0.00,23.1,22.3,00.0,32.2,24.9,13.9,0000.0,0015.75,0006.49,0004.53
2022-04-04 10:08:00,,0821.3,5.00,0.00,23.1,22.3,00.0,32.2,24.9,13.9,0000.0,0017.45,0006.61,0004.56
2022-04-04 10:09:00,,0821.3,5.01,0.00,23.1,22.3,00.0,32.2,25.0,13.9,0000.0,0016.82,0006.67,0004.61
2022-04-04 10:10:00,,0821.3,5.01,0.00,23.1,22.3,00.0,32.2,25.0,13.9,0000.0,0016.73,0006.69,0004.64
2022-04-04 10:11:00,,0821.3,4.99,0.00,23.1,22.4,00.0,32.2,25.0,13.9,0000.0,0017.95,0006.73,0004.66
2022-04-04 10:12:00,,0821.3,5.00,0.00,23.2,22.4,00.0,32.2,25.0,13.9,0000.0,0018.08,0006.73,0004.67
2022-04-04 10:13:00,,0821.3,5.01,0.00,23.2,22.4,00.0,32.2,25.0,13.9,0000.0,0017.87,0006.69,0004.68
2022-04-04 10:14:00,,0821.3,5.00,0.00,23.2,22.4,00.0,32.2,25.0,13.9,0000.0,0017.78,0006.67,0004.66
2022-04-04 10:15:00,,0821.3,5.00,0.00,23.2,22.4,00.0,32.2,25.0,13.8,0001.1,0018.21,0006.69,0004.65
2022-04-04 10:16:00,,0821.3,4.99,0.00,23.2,22.5,00.0,32.2,25.0,13.8,0003.2,0018.73,0006.75,0004.64
2022-04-04 10:17:00,,0821.3,5.01,0.00,23.2,22.5,00.0,32.2,25.0,13.8,0002.3,0019.39,0006.78,0004.62
2022-04-04 10:18:00,,0821.3,5.00,0.00,23.2,22.5,00.0,32.2,25.0,13.7,0000.5,0018.93,0006.78,0004.60
2022-04-04 10:19:00,,0821.3,5.00,0.00,23.3,22.5,00.0,32.2,25.1,13.7,-000.0,0017.72,0006.85,0004.60
2022-04-04 10:20:00,,0821.3,5.00,0.00,23.3,22.5,00.0,32.2,25.1,13.7,0001.0,0017.62,0006.89,0004.60
2022-04-04 10:21:00,,0821.2,4.99,0.00,23.3,22.5,00.0,32.2,25.1,13.6,0001.7,0017.66,0006.84,0004.60
2022-04-04 10:22:00,,0821.2,5.01,0.00,23.3,22.5,00.0,32.2,25.1,13.6,0001.7,0017.10,0006.85,0004.60
2022-04-04 10:23:00,,0821.2,5.01,0.00,23.3,22.6,00.0,32.2,25.1,13.6,0002.7,0017.14,0006.87,0004.60
2022-04-04 10:24:00,,0821.2,5.01,0.00,23.3,22.6,00.0,32.2,25.1,13.6,0002.4,0017.51,0006.91,0004.60
2022-04-04 10:25:00,,0821.2,5.00,0.00,23.4,22.6,00.0,32.2,25.1,13.6,0000.9,0017.24,0006.87,0004.60
2022-04-04 10:26:00,,0821.2,5.00,0.00,23.4,22.6,00.0,32.3,25.2,13.6,0001.4,0017.79,0006.89,0004.60
2022-04-04 10:27:00,,0821.2,5.00,0.00,23.4,22.6,00.0,32.3,25.2,13.6,0000.2,0017.68,0006.84,0004.57
2022-04-04 10:28:00,,0821.2,5.00,0.00,23.4,22.6,00.0,32.3,25.1,13.6,0000.0,0017.29,0006.80,0004.58
2022-04-04 10:29:00,,0821.2,5.01,0.00,23.4,22.6,00.0,32.3,25.2,13.6,0000.3,0016.99,0006.76,0004.58
2022-04-04 10:30:00,,0821.2,4.98,0.00,23.4,22.6,00.0,32.3,25.2,13.6,0000.8,0016.70,0006.64,0004.57
2022-04-04 10:31:00,,0821.2,5.00,0.00,23.4,22.5,00.0,32.3,25.2,13.6,0000.0,0016.58,0006.57,0004.56
2022-04-04 10:32:00,,0821.2,5.00,0.00,23.3,22.5,00.0,32.3,25.2,13.6,0002.5,0016.83,0006.61,0004.55
2022-04-04 10:33:00,,0821.2,5.00,0.00,23.3,22.5,00.0,32.3,25.1,13.5,0002.6,0016.77,0006.62,0004.53
2022-04-04 10:34:00,,0821.2,5.00,0.00,23.3,22.5,00.0,32.3,25.1,13.5,0002.3,0016.91,0006.57,0004.51
2022-04-04 10:35:00,,0821.2,5.00,0.00,23.3,22.5,00.0,32.3,25.1,13.5,0002.1,0016.90,0006.55,0004.50
2022-04-04 10:36:00,,0821.2,5.00,0.00,23.3,22.5,00.0,32.3,25.1,13.5,0001.8,0017.35,0006.59,0004.50
2022-04-04 10:37:00,,0821.1,4.98,0.00,23.3,22.4,00.0,32.3,25.1,13.5,0001.7,0016.33,0006.55,0004.49
2022-04-04 10:38:00,,0821.1,5.00,0.00,23.2,22.4,00.0,32.3,25.0,13.5,0000.6,0016.45,0006.56,0004.49
2022-04-04 10:39:00,,0821.1,5.00,0.00,23.2,22.4,00.0,32.2,25.0,13.5,0000.0,0016.73,0006.55,0004.49
2022-04-04 10:40:00,,0821.1,5.00,0.00,23.2,22.3,00.0,32.2,25.0,13.5,0000.0,0017.38,0006.58,0004.47
2022-04-04 10:41:00,,0821.1,5.00,0.00,23.2,22.3,00.0,32.2,24.9,13.5,0000.0,0017.23,0006.57,0004.46
2022-04-04 10:42:00,,0821.1,5.00,0.00,23.1,22.3,00.0,32.2,24.9,13.6,0000.0,0017.06,0006.51,0004.44
2022-04-04 10:43:00,,0821.1,5.00,0.00,23.1,22.2,00.0,32.2,24.9,13.6,0000.0,0016.75,0006.41,0004.43
2022-04-04 10:44:00,,0821.1,5.01,0.00,23.1,22.2,00.0,32.2,24.9,13.6,0000.0,0016.05,0006.29,0004.41
2022-04-04 10:45:00,,0821.1,4.99,0.00,23.1,22.2,00.0,32.2,24.9,13.6,0000.0,0015.72,0006.31,0004.41
2022-04-04 10:46:00,,0821.1,5.01,0.00,23.1,22.3,00.0,32.2,24.9,13.6,0000.0,0015.94,0006.33,0004.41
2022-04-04 10:47:00,,0821.1,5.00,0.00,23.1,22.3,00.0,32.2,24.9,13.5,0000.0,0015.74,0006.28,0004.39
2022-04-04 10:48:00,,0821.1,5.00,0.00,23.1,22.3,00.0,32.2,24.9,13.6,0000.0,0016.99,0006.32,0004.37
2022-04-04 10:49:00,,0821.0,5.00,0.00,23.1,22.3,00.0,32.1,24.9,13.5,0000.0,0017.01,0006.32,0004.37
2022-04-04 10:50:00,,0821.0,5.00,0.00,23.1,22.3,00.0,32.1,24.9,13.5,0000.0,0016.97,0006.36,0004.36
2022-04-04 10:51:00,,0821.0,5.00,0.00,23.1,22.4,00.0,32.1,24.9,13.5,0000.0,0016.03,0006.28,0004.37
2022-04-04 10:52:00,,0821.0,4.98,0.00,23.1,22.4,00.0,32.1,24.9,13.5,0000.0,0017.18,0006.29,0004.36
2022-04-04 10:53:00,,0821.0,5.00,0.00,23.1,22.4,00.0,32.1,24.9,13.5,0000.0,0018.27,0006.44,0004.37
2022-04-04 10:54:00,,0821.0,5.00,0.00,23.2,22.4,00.0,32.1,25.0,13.5,0000.0,0017.96,0006.48,0004.37
2022-04-04 10:55:00,,0820.9,5.00,0.00,23.1,22.4,00.0,32.1,24.9,13.6,0000.0,0018.10,0006.54,0004.38
2022-04-04 10:56:00,,0821.0,5.00,0.00,23.1,22.3,00.0,32.1,24.9,13.6,0000.0,0018.57,0006.54,0004.37
2022-04-04 10:57:00,,0821.0,5.00,0.00,23.1,22.3,00.0,32.1,24.9,13.6,0000.0,0018.89,0006.47,0004.36
2022-04-04 10:58:00,,0821.0,5.00,0.00,23.1,22.3,00.0,32.1,24.9,13.6,0000.0,0019.08,0006.50,0004.38
2022-04-04 10:59:00,,0821.0,4.99,0.00,23.1,22.3,00.0,32.1,24.9,13.6,0000.0,0018.01,0006.45,0004.38
